Home   Weather   Nukualofa   Past weeks
Flag for Tonga

Past Weather in Nukualofa, Tonga — Yesterday and Last 2 Weeks

Now
77 °F

Broken clouds.


Feels Like: 78 °F
Forecast: 81 / 73 °F
Wind: 9 mph from Southeast

Location: Fua'Amotu

Current Time: Oct 17, 2019 at 6:37:44 pm

Latest Report: Oct 17, 2019 at 6:00 pm


Visibility: N/A

Pressure: 29.98 "Hg

Humidity: 89%

Dew Point: 73 °F

Location of NukualofaLocation

Past Weather in Nukualofa — Graph

°F

Nukualofa Temperature Yesterday

Maximum temperature yesterday: 82 °F (at 12:00 pm)
Minimum temperature yesterday: 73 °F (at 12:00 am)
Average temperature yesterday: 77 °F

High & Low Weather Summary for the Past Weeks

 TemperatureHumidityPressure
High82 °F (Oct 16, 12:00 pm)100% (Oct 9, 9:00 pm)30.12 "Hg (Oct 9, 9:00 pm)
Low66 °F (Oct 10, 3:00 am)64% (Oct 3, 8:00 pm)29.86 "Hg (Oct 15, 3:00 pm)
Average74 °F84%30.01 "Hg
* Reported Oct 2 5:00 pm — Oct 17 5:00 pm, Nukualofa. Weather by CustomWeather, © 2019

Note: Actual official high and low records may vary slightly from our data, if they occured in-between our weather recording intervals... More about our weather records

Advertising

Nukualofa Weather History for the Previous 24 Hours

Scroll right to see more
 ConditionsComfort  
Time TempWeatherWind HumidityBarometerVisibility
5:00 pm
Thu, Oct 17
79 °FBroken clouds.8 mph84%29.95 "HgN/A
4:00 pm81 °FBroken clouds.7 mph79%29.95 "HgN/A
3:00 pm82 °FBroken clouds.8 mph79%29.95 "HgN/A
2:00 pm81 °FBroken clouds.9 mph84%29.95 "HgN/A
1:00 pm81 °FBroken clouds.7 mph84%29.98 "HgN/A
12:00 pm79 °FPartly sunny.8 mph89%29.98 "HgN/A
11:00 am77 °FPartly sunny.14 mph89%30.01 "HgN/A
10:00 am77 °FBroken clouds.12 mph89%30.01 "HgN/A
9:00 am77 °FBroken clouds.13 mph89%30.01 "HgN/A
8:00 am75 °FBroken clouds.14 mph94%29.98 "HgN/A
7:00 am75 °FDrizzle. Broken clouds.10 mph94%29.98 "HgN/A
6:00 am73 °FPartly cloudy.3 mph100%29.95 "HgN/A
5:00 am73 °FMostly cloudy.2 mph100%29.92 "HgN/A
4:00 am73 °FMostly cloudy.5 mph100%29.92 "HgN/A
3:00 am73 °FPassing clouds.2 mph100%29.95 "HgN/A
2:00 am73 °FPassing clouds.2 mph100%29.95 "HgN/A
1:20 am73 °FOvercast.3 mph100%29.98 "HgN/A
1:00 am73 °FSprinkles. Overcast.5 mph100%29.98 "HgN/A
12:40 am73 °FRain. Overcast.6 mph100%29.98 "Hg3 mi
12:00 am73 °FRain showers. Overcast.2 mph94%30.01 "HgN/A
11:20 pm
Wed, Oct 16
73 °FHeavy rain. Overcast.10 mph100%30.01 "Hg1 mi
11:00 pm73 °FSprinkles. Overcast.5 mph100%30.01 "HgN/A
10:00 pm73 °FSprinkles. Overcast.7 mph100%30.01 "HgN/A
9:00 pm73 °FSprinkles. Overcast.5 mph100%29.98 "HgN/A
8:25 pm75 °FRain showers. Overcast.5 mph94%29.95 "HgN/A
8:00 pm75 °FHeavy rain. Overcast.5 mph94%29.95 "Hg1 mi
7:00 pm75 °FRain showers. Overcast.3 mph94%29.95 "HgN/A
6:00 pm79 °FPartly sunny.7 mph84%29.92 "HgN/A
Weather by CustomWeather, © 2019

See weather overview